Location: *
(50.2903°S, 172.5375°W)
Time: 05:44:57
(UTC+00:00)

GP-B - Pass Details

Date: 17 November 2019
Orbit: 631 x 635 km, 89.8° (Epoch: 12 December)

Event Time Altitude Azimuth Distance (km) Brightness Sun altitude
Rises 14:00:44 0° 175° (S) 2,979 7.6 -11.7°
Reaches altitude 10° 14:03:04 10° 168° (SSE) 2,062 6.8 -11.4°
Maximum altitude 14:07:27 46° 94° (E) 867 4.2 -11.0°
Drops below altitude 10° 14:11:47 10° 20° (NNE) 2,036 5.4 -10.5°
Sets 14:14:04 0° 13° (NNE) 2,937 6.2 -10.3°
